This demonstration page uses our WeatherBlox Daily Observations layout. Learn more.

40.92945, -100.16068

Hourly Observations for June 11, 2019

Temp ( °F °C ) Dew Point ( °F °C ) Humidity (%) Winds ( mph kmh ) Pressure ( in mb ) Visibility ( mi km ) Precip ( " mm )
12:15 am 00:15 Clear 60 15.5 45 7.3 58 58 S 17 28 30.12 1020 10 16.09344 0 0
12:35 am 00:35 Clear 59 15 46 7.5 61 61 S 17 28 30.12 1020 10 16.09344 0 0
12:55 am 00:55 Clear 58 14.6 46 7.7 64 64 S 15 24 30.15 1021 10 16.09344 0 0
1:15 am 01:15 Clear 58 14.4 46 7.6 64 64 S 15 24 30.15 1021 10 16.09344 0 0
1:35 am 01:35 Clear 58 14.3 46 7.5 64 64 S 14 22 30.15 1021 10 16.09344 0 0
1:55 am 01:55 Clear 58 14.2 46 7.5 64 64 S 12 19 30.12 1020 10 16.09344 0 0
2:15 am 02:15 Clear 58 14.5 46 7.5 63 63 S 13 20 30.09 1019 10 16.09344 0 0
2:35 am 02:35 Partly Cloudy 59 15 45 7.4 61 61 S 13 20 30.09 1019 10 16.09344 0 0
2:55 am 02:55 Clear 60 15.4 44 6.9 57 57 S 13 20 30.09 1019 10 16.09344 0 0
3:15 am 03:15 Clear 59 15.2 44 6.8 57 57 S 15 24 30.06 1018 10 16.09344 0 0
3:35 am 03:35 Clear 59 15 44 6.9 59 59 S 13 20 30.06 1018 10 16.09344 0 0
3:55 am 03:55 Clear 58 14.3 45 7 62 62 S 9 15 30.06 1018 10 16.09344 0 0
4:15 am 04:15 Clear 56 13.3 45 7.3 67 67 SSE 5 7 30.09 1019 10 16.09344 0 0
4:35 am 04:35 Clear 55 12.7 45 7.2 69 69 SE 3 6 30.09 1019 10 16.09344 0 0
4:55 am 04:55 Clear 55 12.5 45 7.3 71 71 ESE 5 7 30.09 1019 10 16.09344 0 0
5:15 am 05:15 Clear 54 12.1 45 7.3 73 73 SE 5 7 30.09 1019 10 16.09344 0 0
5:35 am 05:35 Clear 52 11.3 46 7.5 78 78 ESE 5 7 30.09 1019 10 16.09344 0 0
5:55 am 05:55 Clear 53 11.6 46 7.5 76 76 SE 6 9 30.09 1019 10 16.09344 0 0
6:15 am 06:15 Sunny 52 11.2 46 7.5 78 78 SE 6 9 30.09 1019 10 16.09344 0 0
6:35 am 06:35 Sunny 50 10 46 7.6 85 85 E 5 7 30.12 1020 10 16.09344 0 0
6:55 am 06:55 Sunny 49 9.7 46 8 89 89 ESE 6 9 30.12 1020 10 16.09344 0 0
7:15 am 07:15 Partly Cloudy 54 12.2 48 8.7 79 79 SE 6 9 30.09 1019 10 16.09344 0 0
7:35 am 07:35 Sunny 57 13.7 49 9.3 75 75 SSE 5 7 30.09 1019 10 16.09344 0 0
7:55 am 07:55 Sunny 57 14 49 9.6 75 75 SSE 5 7 30.09 1019 10 16.09344 0 0
8:15 am 08:15 Sunny 59 14.9 49 9.2 69 69 SSE 6 9 30.06 1018 10 16.09344 0 0
8:35 am 08:35 Sunny 59 15 49 9.6 70 70 S 7 11 30.06 1018 10 16.09344 0 0
8:55 am 08:55 Sunny 60 15.7 50 9.8 68 68 S 9 15 30.06 1018 10 16.09344 0 0
9:15 am 09:15 Sunny 61 16.3 49 9.4 64 64 SSW 14 22 30.03 1017 10 16.09344 0 0
9:35 am 09:35 Sunny 62 16.8 48 8.9 60 60 SSW 14 22 30.03 1017 10 16.09344 0 0
9:55 am 09:55 Sunny 62 16.9 49 9.5 62 62 SSW 9 15 30.03 1017 10 16.09344 0 0
10:15 am 10:15 Partly Cloudy 63 17 49 9.6 62 62 S 14 22 30.03 1017 10 16.09344 0 0
10:35 am 10:35 Mostly Cloudy 62 16.6 48 9.1 61 61 SW 12 19 30.03 1017 10 16.09344 0 0
10:55 am 10:55 Partly Cloudy 63 17.4 50 10 62 62 SW 9 15 30 1016 10 16.09344 0 0
11:15 am 11:15 Partly Cloudy 63 17.2 50 10.2 64 64 SSW 8 13 30 1016 10 16.09344 0 0
11:35 am 11:35 Sunny 65 18.5 52 10.9 61 61 S 9 15 30 1016 10 16.09344 0 0
11:55 am 11:55 Sunny 65 18.5 51 10.8 61 61 SSW 8 13 30 1016 10 16.09344 0 0
12:15 pm 12:15 Sunny 66 19 51 10.5 58 58 WSW 8 13 30 1016 10 16.09344 0 0
12:35 pm 12:35 Sunny 67 19.2 51 10.5 57 57 WNW 6 9 30 1016 10 16.09344 0 0
12:55 pm 12:55 Partly Cloudy 67 19.3 50 10.2 56 56 WSW 5 7 30 1016 10 16.09344 0 0
1:15 pm 13:15 Partly Cloudy 67 19.5 52 11.1 58 58 NW 3 6 30 1016 10 16.09344 0 0
1:35 pm 13:35 Partly Cloudy 67 19.3 50 10 55 55 NW 3 6 30 1016 10 16.09344 0 0
1:55 pm 13:55 Partly Cloudy 66 19 53 11.8 63 63 WNW 5 7 30 1016 10 16.09344 0 0
2:15 pm 14:15 Sunny 68 20 53 11.5 58 58 NNW 3 6 30 1016 10 16.09344 0 0
2:35 pm 14:35 Sunny 69 20.6 53 11.6 56 56 N 3 6 29.94 1014 10 16.09344 0 0
2:55 pm 14:55 Partly Cloudy 69 20.4 54 12.2 59 59 Calm 29.94 1014 10 16.09344 0 0
3:15 pm 15:15 Partly Cloudy 71 21.9 53 11.7 52 52 N 9 15 29.94 1014 10 16.09344 0 0
3:35 pm 15:35 Sunny 72 22.1 53 11.7 52 52 NNE 12 19 29.94 1014 10 16.09344 0 0
3:55 pm 15:55 Partly Cloudy 71 21.5 51 10.7 50 50 NNE 15 24 29.94 1014 10 16.09344 0 0
4:15 pm 16:15 Sunny 71 21.5 50 10.2 49 49 N 15 24 29.94 1014 10 16.09344 0 0
4:35 pm 16:35 Sunny 71 21.4 50 10 48 48 NNE 13 20 29.94 1014 10 16.09344 0 0
4:55 pm 16:55 Sunny 71 21.8 49 9.4 45 45 NNE 10 17 29.94 1014 10 16.09344 0 0
5:15 pm 17:15 Partly Cloudy 71 21.9 49 9.7 46 46 NE 10 17 29.94 1014 10 16.09344 0 0
5:35 pm 17:35 Sunny 72 22.1 51 10.6 48 48 NNE 7 11 29.94 1014 10 16.09344 0 0
5:55 pm 17:55 Sunny 72 22.1 48 9.1 44 44 NE 3 6 29.94 1014 10 16.09344 0 0
6:15 pm 18:15 Mostly Cloudy 69 20.6 49 9.5 49 49 N 12 19 29.94 1014 10 16.09344 0 0
6:35 pm 18:35 Cloudy with Light Rain 67 19.6 51 10.3 55 55 N 17 28 29.97 1015 10 16.09344 0 0
6:55 pm 18:55 Mostly Cloudy 67 19.6 54 12.1 62 62 N 9 15 29.97 1015 10 16.09344 0 0
7:15 pm 19:15 Partly Cloudy 64 18 53 11.7 67 67 N 9 15 29.97 1015 10 16.09344 0 0
7:35 pm 19:35 Cloudy with Light Rain 64 17.8 53 11.5 67 67 N 10 17 29.97 1015 10 16.09344 0 0
7:55 pm 19:55 Cloudy with Rain 58 14.6 55 13 90 90 NNW 5 7 30.03 1017 3 4.828032 0.11 2.794
8:15 pm 20:15 Mostly Cloudy 61 16.2 57 14 87 87 WNW 8 13 30 1016 10 16.09344 0.01 0.254
8:35 pm 20:35 Partly Cloudy 59 15.1 55 13 87 87 NW 8 13 30.03 1017 10 16.09344 0.01 0.254
8:55 pm 20:55 Sunny 57 13.9 54 12 88 88 WNW 5 7 30 1016 10 16.09344 0.01 0.254
9:15 pm 21:15 Clear 56 13.3 54 12.1 93 93 W 5 7 30.03 1017 10 16.09344 0 0
9:35 pm 21:35 Clear 55 13 53 11.7 92 92 NW 6 9 30.06 1018 10 16.09344 0 0
9:55 pm 21:55 Clear 54 12.3 53 11.7 96 96 WNW 6 9 30.06 1018 10 16.09344 0 0
10:15 pm 22:15 Clear 54 12.2 53 11.5 96 96 WNW 7 11 30.06 1018 10 16.09344 0 0
10:35 pm 22:35 Clear 54 12.2 53 11.4 95 95 NW 9 15 30.09 1019 10 16.09344 0 0
10:55 pm 22:55 Clear 54 12 52 11.3 96 96 WNW 7 11 30.09 1019 10 16.09344 0 0
11:15 pm 23:15 Clear 53 11.5 52 11.1 97 97 WNW 7 11 30.09 1019 10 16.09344 0 0
11:35 pm 23:35 Clear 53 11.6 52 11.2 97 97 W 7 11 30.09 1019 10 16.09344 0 0
11:55 pm 23:55 Partly Cloudy 53 11.5 52 11 97 97 WNW 7 11 30.09 1019 10 16.09344 0 0

Powered by AerisWeather